Location: Bus
(50.0640°N, 2.9658°E)
Time: 17:25:18
(UTC+00:00)

Daily predictions for brighter satellites

Satellite Brightness Start Highest point End
(mag) Time Altitude Azimuth Time Altitude Azimuth Time Altitude Azimuth
NOSS 2-2 (D) 4.4 16:50:09 10° NW 16:55:22 67° NE 17:02:35 10° SE
CZ-4C R/B 3.2 16:56:25 10° N 16:59:40 70° WNW 17:03:00 10° SSW
Landsat 5 3.4 16:56:31 10° NNE 17:00:25 83° WNW 17:04:23 10° SSW
USA 307 3.1 16:58:14 10° WNW 17:02:29 58° NNE 17:06:43 10° E
CZ-4B R/B 3.3 16:58:09 10° SSE 17:03:45 89° WSW 17:09:18 10° NNW
Cosmos 1939 Rocket 3.7 17:00:55 10° SE 17:04:19 28° ENE 17:07:40 10° N
YAOGAN 1 4.0 17:02:27 10° ESE 17:05:24 18° ENE 17:08:21 10° NNE
USA 308 3.1 17:03:09 10° WNW 17:07:26 60° NNE 17:11:40 10° E
Okean O Rocket 1.6 17:03:14 10° SSE 17:07:36 88° E 17:11:59 10° NNW
SeaSat 1 4.1 17:04:37 10° ENE 17:07:44 17° NE 17:10:51 10° N
Cosmos 1408 4.3 17:06:18 10° NNE 17:08:25 15° ENE 17:10:32 10° E
Timation 2 Rocket 4.2 17:02:10 10° NNW 17:08:47 83° ENE 17:15:37 10° SSE
Cosmos 1331 Rocket 4.0 17:03:44 10° S 17:08:48 60° ESE 17:13:54 10° NNE
Meteor 2-14 Rocket 4.5 17:03:51 10° N 17:10:03 82° E 17:16:10 10° SSE
Cosmos 2227 Rocket 2.4 17:07:15 10° NNW 17:12:47 50° NE 17:18:16 10° SE
Cosmos 1908 3.8 17:09:36 10° SSW 17:13:25 62° WNW 17:17:17 10° N
NOAA 12 4.2 17:08:38 10° SSE 17:13:57 88° WSW 17:19:19 10° NNW
Cosmos 1726 Rocket 3.8 17:09:49 10° SSE 17:14:00 47° E 17:18:13 10° NNE
USA 215 3.8 17:07:53 10° ENE 17:14:06 49° N 17:20:21 10° WNW
Cosmos 1892 3.8 17:11:14 10° NNE 17:14:29 25° ENE 17:17:42 10° SE
ATLAS 2AS CENTAUR R/B 3.8 17:08:39 10° NW 17:15:35 34° NNE 17:22:01 10° E
Cosmos 2263 Rocket 3.8 17:12:15 10° N 17:15:50 17° NNE 17:19:24 10° ENE
Cosmos 1758 Rocket 4.0 17:11:37 10° NNW 17:16:01 69° W 17:20:20 10° S
Helios 1A Rocket 3.8 17:13:04 10° SE 17:16:36 28° ENE 17:20:08 10° N
Cosmos 2228 3.0 17:12:51 10° S 17:17:04 67° E 17:21:21 10° NNE
Aureole 3 Rocket 3.9 17:14:52 10° SSE 17:18:45 36° E 17:23:58 10° NNE
Cosmos 1400 Rocket 3.6 17:15:14 10° SSE 17:18:55 32° E 17:22:35 10° NNE
Cosmos 292 Rocket 3.8 17:16:27 10° S 17:21:09 59° ESE 17:25:55 10° NNE
Cosmos 968 Rocket 3.8 17:17:23 10° NNW 17:22:26 45° ENE 17:27:24 10° SE
IRS-1C Rocket 4.2 17:18:01 10° SE 17:23:07 52° ENE 17:28:15 10° N
Cosmos 1553 Rocket 4.5 17:20:01 10° SSE 17:25:45 38° E 17:31:28 10° NNE
FALCON 9 DEB 3.4 17:24:01 10° SW 17:27:08 46° SSE 17:29:34 15° ENE
Cosmos 1300 2.6 17:23:27 10° S 17:27:12 64° E 17:31:01 10° NNE
Lacrosse 5 2.8 17:23:08 10° WNW 17:27:53 38° N 17:32:14 12° ENE
Cosmos 1606 Rocket 3.5 17:25:37 10° S 17:30:00 85° E 17:34:27 10° N
FALCON 9 DEB 3.3 17:27:06 10° SW 17:30:13 51° SSE 17:32:31 16° ENE
CZ-4 R/B 2.1 17:26:59 10° SE 17:30:22 29° ENE 17:33:44 10° N
Cosmos 1697 Rocket 3.8 17:26:20 10° SSE 17:30:29 22° E 17:34:39 10° NE
SMAP 3.9 17:26:58 10° S 17:31:32 56° W 17:36:08 10° NNW
Cosmos 2058 3.7 17:27:58 10° N 17:31:33 28° ENE 17:35:07 10° SE
Cosmos 1825 3.6 17:30:09 10° NNE 17:32:50 18° ENE 17:34:22 15° E
SAR-Lupe-4 3.9 17:30:25 10° NNE 17:33:53 44° E 17:37:19 10° S
ERBS 3.9 17:32:24 10° WNW 17:35:12 24° N 17:37:25 13° NE
SKYMED 2 3.9 17:33:15 10° NNE 17:37:25 42° E 17:41:32 10° S
ERS-2 2.1 17:34:12 10° NNE 17:37:52 89° WNW 17:41:31 10° SSW
CZ-2D R/B 3.5 17:34:43 10° SE 17:38:21 44° ENE 17:42:01 10° N
Cosmos 1110 Rocket 4.2 17:33:12 10° SSW 17:38:27 74° WNW 17:43:41 10° NNE
FALCON 9 DEB 3.4 17:35:20 10° WNW 17:38:42 53° N 17:40:54 19° E
ADEOS Rocket 3.9 17:33:36 10° N 17:39:51 60° WNW 17:46:45 10° SW
SL-4 R/B 1.7 17:36:45 10° WNW 17:40:16 69° N 17:42:47 19° E
Cosmos 1302 Rocket 4.1 17:35:26 10° S 17:40:36 60° ESE 17:45:50 10° NNE
Cosmos 1346 Rocket 3.3 17:37:36 10° N 17:41:20 36° ENE 17:45:02 10° SE
NOAA 11 4.3 17:36:18 10° SSE 17:41:45 82° WSW 17:47:13 10° NNW
Okean-O 2.9 17:38:44 10° SE 17:42:58 46° ENE 17:47:13 10° N
FALCON 9 DEB 3.1 17:40:22 10° SW 17:43:34 60° SSE 17:45:25 22° ENE
USA 281 4.1 17:37:53 10° S 17:44:16 53° WSW 17:50:43 10° NNW
SL-08 R/B 4.4 17:38:27 10° N 17:44:36 63° ENE 17:50:39 10° SSE
Cosmos 1340 2.5 17:41:09 10° N 17:44:57 77° ENE 17:48:43 10° SSE
Cosmos 1486 Rocket 4.0 17:42:14 10° NNW 17:47:36 72° ENE 17:52:54 10° SSE
Cosmos 1745 Rocket 4.1 17:43:15 10° N 17:49:24 52° ENE 17:55:34 10° SSE
Cosmos 1315 Rocket 3.7 17:48:07 10° SSE 17:51:26 26° E 17:54:02 14° NE
SAR-Lupe-1 4.0 17:48:12 10° NNE 17:51:47 68° ESE 17:55:22 10° S
Cosmos 1689 Rocket 2.1 17:49:40 10° NNE 17:52:29 48° E 17:55:17 10° S
Cosmos 2297 Rocket 2.4 17:46:52 10° NNW 17:52:34 78° WSW 17:58:13 10° SSE
Cosmos 2369 Rocket 4.4 17:48:41 10° W 17:52:40 19° NW 17:56:41 10° N
USA 305 2.9 17:48:30 10° WNW 17:52:50 86° NNE 17:55:44 20° ESE
Cosmos 1980 Rocket 3.5 17:50:04 10° SE 17:53:26 18° ESE 17:53:26 18° ESE
FALCON 9 DEB 2.9 17:50:56 10° WSW 17:54:08 73° SSE 17:55:34 30° ENE
In-Cosmos 22 Rocket 4.0 17:49:17 10° N 17:54:40 84° ENE 18:00:09 10° SSE
CZ-4B R/B 2.0 17:52:06 10° N 17:55:16 55° WNW 17:58:21 10° SSW
Cosmos 1503 Rocket 4.1 17:52:27 10° NNW 17:57:35 53° ENE 18:02:43 10° SE
USA 306 2.9 17:55:00 10° WNW 17:59:18 89° SSW 18:01:57 23° ESE
CSL-04 Debris 4.4 17:55:31 10° SE 18:00:40 46° ENE 18:05:53 10° N
Aureole 3 2.5 17:57:52 10° S 18:00:56 87° WNW 18:03:56 10° N
Cosmos 2058 Rocket 3.1 18:01:12 10° S 18:05:42 84° W 18:10:14 10° N
CZ-2C R/B 3.2 18:03:32 10° SSE 18:09:16 67° ENE 18:14:48 10° N
Cosmos 1354 Rocket 4.0 18:04:35 10° NNW 18:09:47 58° ENE 18:14:14 14° SE
CZ-4C R/B 3.6 18:07:33 10° NW 18:13:27 34° NNE 18:17:00 23° ENE
Cosmos 1455 2.4 18:11:30 10° SSE 18:15:07 46° E 18:17:16 22° NNE
Cosmos 1992 Rocket 4.1 18:13:21 10° S 18:18:23 53° ESE 18:22:43 14° NE
Cosmos 1709 Rocket 4.2 18:12:50 10° N 18:19:02 50° ENE 18:25:13 10° SSE
SJ 16-02 3.7 18:18:39 10° NNE 18:18:55 10° NNE 18:18:55 10° NNE
Meteor 2-10 Rocket 3.4 18:15:35 10° S 18:20:49 67° E 18:25:54 10° NNE
Cosmos 1076 Rocket 3.4 18:16:35 10° N 18:20:49 64° ENE 18:25:00 10° SSE
Cosmos 2219 4.4 18:18:57 10° NW 18:24:24 44° WSW 18:29:48 10° S
Cosmos 2278 4.3 18:19:57 10° SSE 18:24:51 32° ESE 18:24:51 32° ESE
COSMO-SKYMED 1 2.9 18:21:13 10° N 18:25:33 67° WNW 18:29:51 10° SSW
Meteor 2-3 Rocket 4.4 18:21:41 10° N 18:26:49 32° ENE 18:27:07 32° ENE
Ariane Rocket 3.9 18:30:46 30° NE 18:30:46 30° NE 18:34:45 10° N
Geosat 4.3 18:29:49 38° E 18:30:57 44° ESE 18:35:44 10° S
Cosmos 44 4.2 18:27:33 10° WSW 18:31:58 45° NW 18:35:30 17° NNE
Cosmos 2082 3.8 18:26:47 10° NNW 18:32:33 81° WSW 18:38:04 11° SSE
ATLAS 5 CENTAUR R/B 3.9 18:30:42 10° NW 18:34:01 18° N 18:36:16 14° NNE
H-2A R/B 2.0 18:30:22 10° SSE 18:35:47 78° ENE 18:41:17 10° NNW
Cosmos 883 Rocket 4.5 18:30:09 10° SSE 18:36:07 56° E 18:42:05 10° NNE
SJ-11-01 4.1 18:34:07 13° SSE 18:38:20 83° ENE 18:43:04 10° NNW
ARGOS 3.1 18:36:01 24° SE 18:39:20 65° ENE 18:44:44 10° N
CRYOSAT 2 4.2 18:35:04 10° N 18:39:57 78° E 18:44:49 10° S
Geosat FO 4.4 18:40:49 83° ENE 18:40:50 83° ENE 18:44:21 10° NNW
YAOGAN 1 3.0 18:36:47 10° S 18:41:04 63° WSW 18:45:23 10° NNW
S3M 3.9 18:35:43 10° S 18:41:50 89° W 18:48:04 10° N
USA 307 3.4 18:38:23 10° WNW 18:42:35 54° SSW 18:43:36 42° SSE
Cosmos 2315 Rocket 4.0 18:37:35 10° SSE 18:43:33 52° E 18:49:32 10° NNE
Cosmos 1408 3.4 18:40:11 10° NNW 18:43:44 51° W 18:47:18 10° S
GEOS 3 Rocket 3.6 18:41:31 35° SE 18:43:55 90° ENE 18:49:22 10° NW
SeaSat 1 2.4 18:43:27 51° ESE 18:44:29 64° NE 18:49:24 10° NNW
Cosmos 1656 4.0 18:39:12 10° SW 18:44:45 67° WNW 18:50:25 10° NNE
NOSS 3-4 (A) 3.8 18:38:52 10° NW 18:45:41 67° NE 18:48:36 39° ESE
NOSS 3-4 (C) 3.8 18:38:58 10° NW 18:45:46 67° NE 18:48:40 39° ESE
USA 308 3.5 18:43:19 10° WNW 18:47:29 51° SW 18:48:20 43° S
Cosmos 1812 Rocket 3.4 18:43:48 10° S 18:48:12 81° E 18:52:35 10° NNE
Cosmos 2369 3.6 18:43:06 10° SSW 18:48:47 69° ESE 18:51:18 34° NE
Cosmos 1844 Rocket 4.4 18:44:57 10° N 18:48:28 18° NNE 18:48:28 18° NNE
DEBRIS 4.3 18:31:06 10° WSW 18:50:00 65° SSE 18:51:52 45° ESE
NOSS 3-3 (A) 3.8 18:50:37 10° SW 18:56:29 78° SE 18:59:03 39° NE
NOSS 3-3 (C) 3.8 18:50:43 10° SSW 18:56:36 77° SE 18:59:06 40° NE
USA 215 3.4 18:54:35 43° ENE 18:56:38 62° NNE 19:03:04 10° WNW
Cosmos 2227 Rocket 3.9 18:51:39 10° NW 18:56:38 33° WSW 19:01:36 10° SSW
MOS 1 Rocket 3.2 18:52:37 10° NNE 18:57:19 88° ESE 19:02:17 10° SSW
CSL-04 Rocket 3.9 18:53:35 10° S 18:59:07 71° WSW 19:04:38 10° NNW
Cosmos 2263 Rocket 2.3 18:55:27 10° NNW 19:01:05 56° NE 19:01:09 56° ENE
CZ-4 R/B 3.3 19:02:01 10° SSW 19:05:23 28° W 19:08:45 10° NW
Cosmos 2151 3.7 19:02:06 10° N 19:05:02 44° N 19:05:02 44° N
ATLAS 2AS CENTAUR R/B 2.8 19:00:14 10° NW 19:07:51 71° NE 19:09:28 55° ESE
Cosmos 1825 3.3 19:04:57 10° NNW 19:08:33 42° W 19:09:13 38° WSW
BREEZE-M R/B 4.1 19:04:20 10° W 19:08:47 68° SSW 19:10:34 49° SE
Lacrosse 5 2.4 19:06:46 10° WNW 19:11:26 47° N 19:11:26 47° N
Cosmos 1697 Rocket 2.8 19:08:17 10° SW 19:13:53 72° WNW 19:16:32 32° NNE
Cosmos 1777 Rocket 3.9 19:09:56 10° NNW 19:14:48 76° N 19:14:48 76° N
Cosmos 44 Rocket 4.2 19:14:13 10° SSW 19:17:10 38° SSW 19:17:10 38° SSW
SL-4 R/B 3.5 19:16:15 10° WNW 19:18:22 32° W 19:18:22 32° W
Cosmos 1980 Rocket 2.8 19:31:22 10° SSW 19:35:17 47° SW 19:35:17 47° SW
Cosmos 2184 Rocket 4.5 19:53:21 10° N 19:58:07 54° NNW 19:58:07 54° NNW
SJ 16-02 4.0 19:55:21 10° NNW 19:55:54 13° NNW 19:55:54 13° NNW
COSMOS 2455 4.4 19:55:38 10° NNW 19:58:59 25° N 19:58:59 25° N
CZ-4C R/B 3.0 19:56:01 10° NW 20:02:11 70° N 20:02:11 70° N
ATLAS 5 CENTAUR R/B 4.2 20:16:02 10° NNW 20:17:48 18° NNW 20:17:48 18° NNW
USA 215 4.2 20:41:56 42° WNW 20:41:56 42° WNW 20:46:11 10° WNW
Cosmos 2263 Rocket 4.2 20:39:52 10° NW 20:42:52 24° WNW 20:42:52 24° WNW
ATLAS 2AS CENTAUR R/B 4.1 20:51:49 10° NW 20:56:55 32° W 20:56:55 32° W
